Gewässerkundlicher Dienst Bayern

Aktuelle Messwerte Fladungen-Leubach

Schnee vom 14.07.2021 bis zum 20.07.2021
Hinweis
Lufttemperatur und Feuchtesensor defekt
BeginnEnde
Schnee vom 14.07.2021 bis zum 20.07.2021
DatumSchneehöhe [cm]Wasseräquivalent [mm]
20.07.2021 23:000,00,3
20.07.2021 22:000,00,3
20.07.2021 21:000,00,3
20.07.2021 20:000,00,3
20.07.2021 19:000,00,3
20.07.2021 18:000,00,4
20.07.2021 17:000,00,6
20.07.2021 16:000,00,3
20.07.2021 15:000,00,4
20.07.2021 14:000,00,2
20.07.2021 13:000,00,2
20.07.2021 12:000,0--
20.07.2021 11:000,00,1
20.07.2021 10:000,00,3
20.07.2021 09:000,00,2
20.07.2021 08:000,00,6
20.07.2021 07:000,00,6
20.07.2021 06:000,00,3
20.07.2021 05:000,00,3
20.07.2021 04:000,00,4
20.07.2021 03:000,00,4
20.07.2021 02:000,00,4
20.07.2021 01:000,00,4
20.07.2021 00:000,00,4
19.07.2021 23:000,00,4
19.07.2021 22:000,00,4
19.07.2021 21:000,00,4
19.07.2021 20:000,00,4
19.07.2021 19:000,00,4
19.07.2021 18:000,00,4
19.07.2021 17:000,00,5
19.07.2021 16:000,00,5
19.07.2021 15:000,00,1
19.07.2021 14:000,0--
19.07.2021 13:000,0--
19.07.2021 12:000,00,1
19.07.2021 11:000,20,0
19.07.2021 10:000,30,0
19.07.2021 09:000,00,4
19.07.2021 08:000,00,5
19.07.2021 07:000,00,4
19.07.2021 06:000,00,4
19.07.2021 05:000,00,4
19.07.2021 04:000,00,4
19.07.2021 03:000,00,3
19.07.2021 02:000,00,3
19.07.2021 01:000,00,4
19.07.2021 00:000,00,4
18.07.2021 23:000,00,3
18.07.2021 22:000,00,4
18.07.2021 21:000,00,4
18.07.2021 20:000,00,4
18.07.2021 19:000,00,4
18.07.2021 18:000,00,4
18.07.2021 17:000,00,6
18.07.2021 16:000,00,2
18.07.2021 15:000,0--
18.07.2021 14:000,0--
18.07.2021 13:000,0--
18.07.2021 12:000,3--
18.07.2021 11:000,7--
18.07.2021 10:000,7--
18.07.2021 09:000,0--
18.07.2021 08:000,00,1
18.07.2021 07:000,00,4
18.07.2021 06:000,00,4
18.07.2021 05:000,00,4
18.07.2021 04:000,00,3
18.07.2021 03:000,00,3
18.07.2021 02:000,00,4
18.07.2021 01:000,00,3
18.07.2021 00:000,00,4
17.07.2021 23:000,00,4
17.07.2021 22:000,00,4
17.07.2021 21:000,00,4
17.07.2021 20:000,00,4
17.07.2021 19:000,00,4
17.07.2021 18:000,00,3
17.07.2021 17:000,00,6
17.07.2021 16:000,00,7
17.07.2021 15:000,00,3
17.07.2021 14:000,2--
17.07.2021 13:000,20,2
17.07.2021 12:000,50,7
17.07.2021 11:000,00,5
17.07.2021 10:000,00,4
17.07.2021 09:000,00,5
17.07.2021 08:000,00,5
17.07.2021 07:000,00,4
17.07.2021 06:000,00,5
17.07.2021 05:000,00,6
17.07.2021 04:000,00,5
17.07.2021 03:000,00,4
17.07.2021 02:000,00,3
17.07.2021 01:000,00,3
17.07.2021 00:000,00,3
16.07.2021 23:000,00,3
16.07.2021 22:000,00,3
16.07.2021 21:000,00,3
16.07.2021 20:000,00,4
16.07.2021 19:000,00,4
16.07.2021 18:000,00,4
16.07.2021 17:000,00,6
16.07.2021 16:000,00,3
16.07.2021 15:000,00,3
16.07.2021 14:000,30,3
16.07.2021 13:000,50,1
16.07.2021 12:000,00,2
16.07.2021 11:000,20,2
16.07.2021 10:000,00,1
16.07.2021 09:000,00,4
16.07.2021 08:000,00,4
16.07.2021 07:000,00,5
16.07.2021 06:000,00,4
16.07.2021 05:000,00,3
16.07.2021 04:000,00,4
16.07.2021 03:000,00,3
16.07.2021 02:000,00,3
16.07.2021 01:000,00,3
16.07.2021 00:000,00,3
15.07.2021 23:000,00,4
15.07.2021 22:000,00,4
15.07.2021 21:000,00,3
15.07.2021 20:000,00,4
15.07.2021 19:000,00,4
15.07.2021 18:000,00,5
15.07.2021 17:000,00,4
15.07.2021 16:000,00,5
15.07.2021 15:000,00,6
15.07.2021 14:000,00,7
15.07.2021 13:000,00,6
15.07.2021 12:000,00,7
15.07.2021 11:000,00,4
15.07.2021 10:000,00,2
15.07.2021 09:000,00,2
15.07.2021 08:000,00,6
15.07.2021 07:000,00,6
15.07.2021 06:000,00,4
15.07.2021 05:000,00,3
15.07.2021 04:000,00,3
15.07.2021 03:000,00,3
15.07.2021 02:000,00,4
15.07.2021 01:000,00,4
15.07.2021 00:000,00,3
14.07.2021 23:000,00,4
14.07.2021 22:000,00,4
14.07.2021 21:000,00,4
14.07.2021 20:000,00,4
14.07.2021 19:000,00,4
14.07.2021 18:000,00,4
14.07.2021 17:000,00,6
14.07.2021 16:000,00,6
14.07.2021 15:000,00,5
14.07.2021 14:000,00,5
14.07.2021 13:000,00,1
14.07.2021 12:000,00,4
14.07.2021 11:000,00,3
14.07.2021 10:000,00,4
14.07.2021 09:000,00,5
14.07.2021 08:000,00,5
14.07.2021 07:000,00,5
14.07.2021 06:000,00,4
14.07.2021 05:000,00,4
14.07.2021 04:000,00,4
14.07.2021 03:000,00,4
14.07.2021 02:000,00,4
14.07.2021 01:000,00,4
14.07.2021 00:000,00,4
Ihre Auswahl wurde erfolgreich in den Download-Korb gelegt.